[[{"header":{"parameterUnit":"m.s-1","parameterCategory":1,"la1":30.2991,"la2":30.254,"lo1":-89.0895,"lo2":-89.0444,"dy":0.0017,"dx":0.0017,"nx":28,"ny":28,"refTime":"2023-11-14T03:00:00:Z","depth":0,"parameterNumber":2,"parameterNumberName":"U-component_of_WINDS"},"data":[0,0,0,0,0,0,0,0,0,0,0,0,0,0,0,0,0,0,0,0,0,0,0,0,0,0,0,0,0,0,0,0,0,0,0,0,0,0,0,0,0,0,0,0,0,0,0,0,0,0,0,0,0,0,0,0,0,0,-6.7892,-6.7893,0,-6.8024,-6.8026,-6.8027,-6.789,-6.7885,-6.788,-6.7875,-6.8016,-6.8024,-6.8033,0,0,0,0,0,0,0,0,0,0,0,0,0,-6.7525,-6.7533,-6.7892,-6.7893,-6.7895,-6.8024,-6.8026,-6.8028,-6.7891,-6.7885,-6.7878,-6.7872,-6.8013,-6.8023,-6.8034,0,0,0,0,0,0,0,0,0,0,0,0,0,-6.7674,-6.7535,-6.7891,-6.7842,-6.7839,-6.8024,-6.8026,-6.8028,-6.7893,-6.7885,-6.7877,-6.7869,-6.8009,-6.8022,-6.8035,-6.8276,0,0,-6.8075,-6.8081,0,0,0,0,0,0,0,0,-6.7666,-6.7688,-6.7848,-6.7846,-6.7843,-6.7932,-6.7948,-6.8112,-6.7895,-6.7873,-6.7875,-6.7865,-6.7995,-6.8009,-6.8051,-6.8283,-6.8289,-6.8076,-6.8084,-6.809,-6.8094,0,0,0,0,0,0,0,-6.7656,-6.7681,-6.7944,-6.785,-6.7847,-6.7815,-6.7828,-6.7979,-6.7977,-6.7874,-6.7864,-6.7882,-6.7992,-6.8039,-6.8054,-6.8291,-6.8076,-6.8088,-6.8096,-6.8101,-6.8729,-6.8737,0,0,0,0,0,0,-6.765,-6.7674,-6.794,-6.7948,-6.7733,-6.7829,-6.7842,-6.7912,-6.7975,-6.7977,-6.7888,-6.7875,-6.8021,-6.8038,-6.8058,-6.8346,-6.809,-6.8102,-6.8109,-6.872,-6.8731,-6.874,0,0,0,0,0,0,-6.7643,-6.7675,-6.7935,-6.7808,-6.7839,-6.7843,-6.7923,-6.7919,-6.7965,-6.7986,-6.7985,-6.7936,-6.8015,-6.804,-6.8223,-6.8349,-6.8108,-6.812,-6.871,-6.8724,-6.8736,-6.8923,0,0,0,0,0,0,-6.7633,-6.7673,-6.7764,-6.7811,-6.7846,-6.8096,-6.793,-6.7927,-6.7988,-6.7971,-6.8031,-6.8033,-6.8011,-6.8204,-6.8236,-6.8363,-6.813,-6.8699,-6.8716,-6.8732,-6.8906,-6.8941,-6.8971,0,0,0,0,0,-6.762,-6.7812,-6.7769,-6.7802,-6.7959,-6.8104,-6.8124,-6.8093,-6.7998,-6.809,-6.8104,-6.8031,-6.833,-6.8224,-6.8259,-6.8391,-6.8691,-6.8711,-6.873,-6.8891,-6.8934,-6.8971,0,0,0,0,0,0,-6.778,-6.7817,-6.777,-6.7982,-6.8041,-6.808,-6.8195,-6.8139,-6.8227,-6.8208,-6.8167,-6.8182,-6.8377,-6.8402,-6.8284,-6.8629,-6.8495,-6.8523,-6.8605,-6.8647,-6.8679,-6.8669,-6.8141,0,0,0,0,0,-6.7839,-6.7953,-6.7979,-6.8164,-6.8196,-6.8191,-6.8253,-6.8224,-6.8283,-6.8308,-6.8334,-6.8397,-6.8504,-6.8577,-6.8677,-6.8908,-6.8921,-6.9017,-6.9049,-6.9076,-6.9101,-6.9228,-6.9272,-6.8806,-6.8806,-6.8805,0,0,-6.7965,-6.7999,-6.8073,-6.8197,-6.8239,-6.8359,-6.8213,-6.8345,-6.8434,-6.8328,-6.8503,-6.8526,-6.8592,-6.8802,-6.8895,-6.8829,-6.9233,-6.9102,-6.9123,-6.9133,-6.9253,-6.9297,-6.9336,-6.8819,-6.8817,-6.8815,0,0,-6.8254,-6.829,-6.8449,-6.8494,-6.8559,-6.8554,-6.8593,-6.8641,-6.8652,-6.8826,-6.875,-6.8856,-6.9042,-6.9094,-6.9144,-6.9455,-6.9392,-6.9489,-6.9661,-6.9785,-6.9822,-6.9854,-6.9967,-7.0008,-6.9513,-6.9514,-6.9514,0,-6.8401,-6.8577,-6.8538,-6.8677,-6.8735,-6.8643,-6.8805,-6.8851,-6.8946,-6.899,-6.8913,-6.9146,-6.9184,-6.9405,-6.9481,-6.9524,-6.9569,-6.9482,-6.9819,-6.9851,-6.9881,-6.9988,-7.0031,-6.9525,-6.9524,-6.9523,-6.9521,0,-6.8756,-6.888,-6.9001,-6.9094,-6.9165,-6.9315,-6.9301,-6.9378,-6.9343,-6.9348,-6.9528,-6.9571,-6.9679,-6.9729,-6.9697,-6.9947,-6.9904,-6.9825,-6.969,-6.9937,-7.0038,-7.0078,-6.9541,-6.9537,-6.9534,-6.9531,0,0,-6.915,-6.922,-6.9266,-6.9308,-6.9373,-6.9469,-6.9615,-6.972,-6.9788,-6.9858,-6.9981,-7.0141,-7.0068,-7.0126,-7.0099,-7.0207,-7.0454,-7.0114,-7.0115,-7.0178,-7.0735,-7.0796,-7.0844,-7.0412,-7.0419,-7.0426,-7.073,0,-6.9442,-6.9695,-6.9665,-6.9907,-7.0022,-6.9937,-7.0065,-7.0121,-7.0129,-7.023,-7.0239,-7.0354,-7.0248,-7.0283,-7.0386,-7.0402,-7.0565,-7.0379,-7.0529,-7.0535,-7.0517,-7.0896,-7.096,-7.1245,-7.0769,-7.0775,-7.078,0,-6.9817,-6.9899,-7.0153,-7.0202,-7.0249,-7.0365,-7.0459,-7.0555,-7.0618,-7.0616,-7.0681,-7.0635,-7.0785,-7.0646,-7.0853,-7.0727,-7.0787,-7.0804,-7.0815,-7.0829,-7.0674,-7.0923,-7.1335,-7.1379,-7.0841,-7.0836,-7.0832,0,-7.0082,-7.0255,-7.043,-7.0468,-7.053,-7.0614,-7.0643,-7.0697,-7.0763,-7.0846,-7.0888,-7.0989,-7.1044,-7.1124,-7.1107,-7.1007,-7.132,-7.1179,-7.1325,-7.1326,-7.1396,-7.1393,-7.1827,-7.1432,-7.1431,-7.1431,-7.143,0,-7.0412,-7.0572,-7.055,-7.0658,-7.0835,-7.0799,-7.0975,-7.0995,-7.1044,-7.1156,-7.1088,-7.1195,-7.1165,-7.1272,-7.126,-7.1435,-7.146,-7.1465,-7.1461,-7.1472,-7.1472,-7.1512,-7.1493,-7.1442,-7.1439,-7.1437,-7.1435,0,-7.0738,-7.0729,-7.0915,-7.0958,-7.0972,-7.1101,-7.1139,-7.1242,-7.1244,-7.1387,-7.1419,-7.1424,-7.1546,-7.1537,-7.1675,-7.1667,-7.1884,-7.1854,-7.1863,-7.1857,-7.2005,-7.1992,-7.2481,-7.2545,-7.2108,-7.2112,-7.2115,0,-7.095,-7.1071,-7.1127,-7.1196,-7.1231,-7.1344,-7.141,-7.1381,-7.1453,-7.1534,-7.1628,-7.1743,-7.1834,-7.2033,-7.2051,-7.2156,-7.2131,-7.2295,-7.2146,-7.2155,-7.2136,-7.213,-7.2143,-7.2325,-7.233,-7.2334,-7.2337,0,-7.1329,-7.1319,-7.1416,-7.1514,-7.1594,-7.167,-7.1738,-7.1799,-7.1777,-7.1862,-7.1985,-7.2055,-7.2196,-7.2312,-7.2413,-7.2446,-7.239,-7.2384,-7.2423,-7.2438,-7.2438,-7.2442,-7.1945,-7.2373,-7.2369,-7.2367,-7.2365,-7.2363,-7.1606,-7.171,-7.1766,-7.1877,-7.1925,-7.1991,-7.209,-7.2106,-7.2207,-7.2318,-7.2295,-7.2434,-7.2495,-7.2624,-7.2667,-7.2777,-7.2719,-7.2776,-7.2791,-7.2806,-7.2824,-7.2419,-7.2795,-7.2794,-7.2793,-7.2793,-7.2792,0,-7.1983,-7.2014,-7.2117,-7.2215,-7.2303,-7.224,-7.2313,-7.2392,-7.2515,-7.2576,-7.2666,-7.2809,-7.2922,-7.295,-7.3059,-7.3142,-7.3119,-7.3172,-7.3166,-7.3176,-7.2869,-7.2825,-7.3189,-7.3189,-7.3188,-7.3188,-7.3188,-7.3188,-7.2189,-7.2362,-7.2359,-7.2557,-7.2588,-7.2722,-7.277,-7.2831,-7.288,-7.3042,-7.3135,-7.3151,-7.32,-7.3312,-7.3414,-7.3419,-7.3463,-7.3527,-7.3523,-7.3236,-7.3197,-7.3159,-7.3117,-7.3536,-7.3537,-7.382,-7.3823,-7.3825]},{"header":{"parameterUnit":"m.s-1","parameterCategory":1,"la1":30.2991,"la2":30.254,"lo1":-89.0895,"lo2":-89.0444,"dy":0.0017,"dx":0.0017,"nx":28,"ny":28,"refTime":"2023-11-14T03:00:00:Z","depth":0,"parameterNumber":3,"parameterNumberName":"V-component_of_WINDS"},"data":[0,0,0,0,0,0,0,0,0,0,0,0,0,0,0,0,0,0,0,0,0,0,0,0,0,0,0,0,0,0,0,0,0,0,0,0,0,0,0,0,0,0,0,0,0,0,0,0,0,0,0,0,0,0,0,0,0,0,-4.5121,-4.512,0,-4.5027,-4.5026,-4.5024,-4.4912,-4.491,-4.4908,-4.4907,-4.481,-4.4809,-4.4808,0,0,0,0,0,0,0,0,0,0,0,0,0,-4.5202,-4.5201,-4.5121,-4.512,-4.5119,-4.5027,-4.5025,-4.5024,-4.4912,-4.491,-4.4908,-4.4906,-4.481,-4.4809,-4.4808,0,0,0,0,0,0,0,0,0,0,0,0,0,-4.5143,-4.52,-4.5121,-4.5052,-4.5044,-4.5027,-4.5025,-4.5024,-4.4913,-4.491,-4.4907,-4.4905,-4.481,-4.4809,-4.4808,-4.4851,0,0,-4.4803,-4.4803,0,0,0,0,0,0,0,0,-4.5146,-4.514,-4.5063,-4.5056,-4.5048,-4.4978,-4.5018,-4.4966,-4.4913,-4.4963,-4.4907,-4.4904,-4.4868,-4.4862,-4.485,-4.4846,-4.4842,-4.4803,-4.4802,-4.4802,-4.4801,0,0,0,0,0,0,0,-4.5151,-4.5143,-4.5083,-4.5062,-4.5053,-4.5024,-4.5013,-4.5008,-4.4931,-4.4958,-4.495,-4.494,-4.4863,-4.4851,-4.4846,-4.4841,-4.4803,-4.4802,-4.4801,-4.48,-4.4865,-4.4867,0,0,0,0,0,0,-4.5165,-4.5148,-4.5086,-4.5081,-4.5092,-4.5025,-4.5012,-4.5003,-4.4931,-4.4917,-4.4942,-4.4935,-4.4855,-4.4848,-4.4843,-4.4886,-4.4802,-4.48,-4.4799,-4.4862,-4.4865,-4.4868,0,0,0,0,0,0,-4.5167,-4.5161,-4.509,-4.5112,-4.5101,-4.5026,-4.5017,-4.5003,-4.4991,-4.4919,-4.4905,-4.4944,-4.4853,-4.4845,-4.4849,-4.4881,-4.48,-4.4798,-4.4859,-4.4863,-4.4867,-4.4976,0,0,0,0,0,0,-4.517,-4.5162,-4.5179,-4.5113,-4.51,-4.5099,-4.5019,-4.5003,-4.4988,-4.4978,-4.4917,-4.4904,-4.485,-4.4852,-4.4848,-4.4878,-4.4797,-4.4856,-4.4861,-4.4866,-4.4969,-4.4983,-4.4995,0,0,0,0,0,-4.5174,-4.5214,-4.518,-4.5173,-4.5119,-4.5101,-4.5094,-4.5031,-4.4992,-4.5007,-4.496,-4.4906,-4.4879,-4.4853,-4.4847,-4.4878,-4.4854,-4.486,-4.4865,-4.4963,-4.498,-4.4994,0,0,0,0,0,0,-4.5286,-4.5204,-4.5166,-4.5186,-4.5152,-4.5083,-4.51,-4.5051,-4.5027,-4.5018,-4.4941,-4.4928,-4.4941,-4.491,-4.4883,-4.4914,-4.4858,-4.4863,-4.4934,-4.495,-4.4963,-4.4969,-4.4796,0,0,0,0,0,-4.5313,-4.5306,-4.5235,-4.5259,-4.5244,-4.5175,-4.5165,-4.512,-4.508,-4.5065,-4.5019,-4.4983,-4.4966,-4.4956,-4.4937,-4.4964,-4.4947,-4.4982,-4.4995,-4.5006,-4.501,-4.502,-4.5033,-4.4887,-4.4887,-4.4887,0,0,-4.5369,-4.5323,-4.5324,-4.5281,-4.5248,-4.5242,-4.5164,-4.5161,-4.5155,-4.5065,-4.5065,-4.503,-4.4985,-4.5,-4.5004,-4.4974,-4.5047,-4.5013,-4.5022,-4.5021,-4.5027,-4.5041,-4.5053,-4.4891,-4.489,-4.489,0,0,-4.5467,-4.5432,-4.5448,-4.5417,-4.5369,-4.5323,-4.5327,-4.5264,-4.5237,-4.5237,-4.5168,-4.516,-4.5133,-4.5102,-4.5083,-4.5167,-4.5116,-4.5163,-4.5231,-4.524,-4.5252,-4.5262,-4.529,-4.5301,-4.5168,-4.5169,-4.5169,0,-4.5542,-4.553,-4.5462,-4.5463,-4.5445,-4.5363,-4.5377,-4.535,-4.5299,-4.5288,-4.5255,-4.5217,-4.5181,-4.5186,-4.5207,-4.5195,-4.5195,-4.517,-4.5256,-4.5265,-4.5273,-4.5299,-4.531,-4.5175,-4.5174,-4.5173,-4.5173,0,-4.5624,-4.5617,-4.5635,-4.5586,-4.5571,-4.5579,-4.551,-4.5503,-4.5458,-4.5415,-4.5414,-4.5367,-4.5335,-4.5333,-4.529,-4.5332,-4.5315,-4.527,-4.5212,-4.5294,-4.5317,-4.5326,-4.5183,-4.5181,-4.5179,-4.5178,0,0,-4.5791,-4.5703,-4.5711,-4.5687,-4.5627,-4.5619,-4.5623,-4.5591,-4.5585,-4.5552,-4.5551,-4.5529,-4.5486,-4.5465,-4.5417,-4.5426,-4.5493,-4.5379,-4.5377,-4.54,-4.5533,-4.5566,-4.5579,-4.5458,-4.546,-4.5461,-4.5536,0,-4.5876,-4.5877,-4.5815,-4.5833,-4.5824,-4.5744,-4.5747,-4.571,-4.5669,-4.5655,-4.5609,-4.5594,-4.554,-4.5526,-4.5532,-4.5484,-4.5518,-4.5478,-4.5455,-4.5455,-4.5468,-4.5591,-4.5627,-4.57,-4.5545,-4.5546,-4.5548,0,-4.5977,-4.5949,-4.5965,-4.5903,-4.5896,-4.59,-4.5865,-4.5853,-4.5808,-4.5778,-4.5753,-4.5698,-4.5695,-4.5641,-4.5634,-4.5607,-4.5594,-4.5569,-4.5571,-4.5565,-4.5506,-4.5587,-4.5722,-4.5732,-4.5561,-4.556,-4.5559,0,-4.6095,-4.6061,-4.6065,-4.6047,-4.5975,-4.5979,-4.5949,-4.5902,-4.5886,-4.5855,-4.5844,-4.5814,-4.5797,-4.5774,-4.5711,-4.5678,-4.5711,-4.5652,-4.5684,-4.5685,-4.5694,-4.5694,-4.5827,-4.5688,-4.5688,-4.5688,-4.5688,0,-4.6196,-4.6209,-4.6117,-4.612,-4.6131,-4.6059,-4.6072,-4.6034,-4.5992,-4.5985,-4.5915,-4.591,-4.5828,-4.5813,-4.5765,-4.5765,-4.5758,-4.5732,-4.5719,-4.5738,-4.5741,-4.5728,-4.572,-4.5691,-4.569,-4.569,-4.5689,0,-4.6329,-4.6268,-4.6268,-4.6199,-4.6182,-4.6193,-4.6133,-4.6132,-4.6087,-4.6078,-4.6072,-4.6001,-4.5979,-4.5915,-4.5877,-4.5844,-4.5858,-4.5834,-4.5873,-4.5864,-4.5899,-4.5896,-4.6027,-4.6039,-4.5896,-4.5897,-4.5898,0,-4.6398,-4.6405,-4.6337,-4.6327,-4.63,-4.6286,-4.6269,-4.6198,-4.6183,-4.6132,-4.6136,-4.6109,-4.6083,-4.6052,-4.5996,-4.5966,-4.594,-4.5987,-4.5935,-4.5952,-4.5938,-4.5938,-4.5937,-4.5999,-4.6001,-4.6002,-4.6003,0,-4.6525,-4.6493,-4.6473,-4.6441,-4.6423,-4.6394,-4.6361,-4.6357,-4.6277,-4.6264,-4.6241,-4.6221,-4.6182,-4.6155,-4.6116,-4.6083,-4.6029,-4.602,-4.6026,-4.6045,-4.6066,-4.6053,-4.5903,-4.6018,-4.6016,-4.6015,-4.6014,-4.6014,-4.6626,-4.6628,-4.658,-4.6558,-4.6526,-4.6496,-4.6491,-4.6445,-4.6424,-4.6387,-4.6346,-4.6327,-4.6279,-4.6221,-4.6192,-4.6175,-4.6147,-4.6155,-4.6157,-4.616,-4.6168,-4.607,-4.6168,-4.6167,-4.6167,-4.6166,-4.6166,0,-4.6747,-4.6712,-4.6693,-4.6649,-4.6631,-4.6583,-4.6544,-4.6532,-4.6516,-4.6477,-4.6452,-4.6425,-4.6398,-4.6339,-4.6306,-4.6303,-4.6278,-4.6297,-4.6295,-4.6288,-4.6196,-4.6194,-4.6318,-4.6318,-4.6318,-4.6318,-4.6318,-4.6318,-4.6809,-4.6809,-4.6772,-4.6755,-4.6719,-4.6701,-4.6682,-4.6654,-4.6621,-4.6594,-4.6571,-4.6533,-4.6484,-4.6447,-4.6419,-4.6402,-4.6392,-4.6419,-4.6395,-4.631,-4.6295,-4.6281,-4.6279,-4.6418,-4.6419,-4.6488,-4.6488,-4.6489]}]]